Location: Koussan�
(15.2012°N, 12.5548°W)
Time: 01:50:50
(UTC+00:00)

Ariane H10+ - Pass Details

Date: 20 October 2020
Orbit: 235 x 8152 km, 6.8° (Epoch: 25 November)

Event Time Altitude Azimuth Distance (km) Brightness Sun altitude
Rises 19:28:21 0° 249° (WSW) 2,783 6.5 -15.5°
Reaches altitude 10° 19:30:03 10° 238° (WSW) 2,237 5.4 -15.9°
Maximum altitude 19:34:56 36° 170° (S) 1,945 4.0 -17.1°
Enters shadow 19:45:06 15° 115° (ESE) 5,109 5.7 -19.6°
